SAS243 ENZV-ESSA

Flight info

Callsign SAS243
Flight time 1h 14m
Altitude 41000
Route UPLEV DCT OSKOM DCT XIDMI DCT ELTOK
Aircraft A333/H-SDE3GHIJ2J3J5M1RVWXY/LB2D1

Departure

Time 2026-04-17 21:12
Airport Stavanger Airport, Sola (ENZV)

Arrival

Time 2026-04-17 22:26
Airport Stockholm-Arlanda Airport (ESSA)
Time Latitude Longitude Altitude Speed Heading
2026-04-17 20:47 58.88067 5.62748 39 ft 0 kts 15°
2026-04-17 21:00 58.88064 5.62747 39 ft 2 kts 15°
2026-04-17 21:01 58.88048 5.62739 37 ft 3 kts 28°
2026-04-17 21:01 58.88035 5.62720 34 ft 0 kts 68°
2026-04-17 21:01 58.88037 5.62732 37 ft 0 kts 68°
2026-04-17 21:02 58.88037 5.62733 37 ft 0 kts 70°
2026-04-17 21:03 58.88037 5.62736 38 ft 0 kts 73°
2026-04-17 21:03 58.88035 5.62719 34 ft 2 kts 73°
2026-04-17 21:03 58.88030 5.62686 35 ft 3 kts 92°
2026-04-17 21:03 58.88029 5.62681 34 ft 0 kts 101°
2026-04-17 21:04 58.88029 5.62682 34 ft 0 kts 101°
2026-04-17 21:04 58.88029 5.62683 34 ft 0 kts 101°
2026-04-17 21:04 58.88029 5.62685 34 ft 0 kts 101°
2026-04-17 21:05 58.88027 5.62694 34 ft 5 kts 105°
2026-04-17 21:05 58.87994 5.62899 40 ft 25 kts 92°
2026-04-17 21:05 58.87974 5.63167 41 ft 7 kts 110°
2026-04-17 21:06 58.87956 5.63268 40 ft 8 kts 105°
2026-04-17 21:06 58.87982 5.63387 41 ft 15 kts 37°
2026-04-17 21:06 58.88135 5.63432 40 ft 28 kts 360°
2026-04-17 21:06 58.88338 5.63429 38 ft 30 kts 359°
2026-04-17 21:07 58.88549 5.63419 36 ft 31 kts 359°
2026-04-17 21:07 58.88764 5.63416 34 ft 31 kts 359°
2026-04-17 21:07 58.88984 5.63407 32 ft 33 kts 359°
2026-04-17 21:07 58.89213 5.63402 30 ft 33 kts 359°
2026-04-17 21:08 58.89338 5.63442 29 ft 3 kts 63°
2026-04-17 21:08 58.89345 5.63513 29 ft 6 kts 85°
2026-04-17 21:08 58.89345 5.63518 29 ft 0 kts 85°
2026-04-17 21:08 58.89345 5.63522 29 ft 1 kts 85°
2026-04-17 21:09 58.89345 5.63525 29 ft 0 kts 85°
2026-04-17 21:10 58.89347 5.63614 29 ft 16 kts 91°
2026-04-17 21:10 58.89333 5.63714 29 ft 3 kts 128°
2026-04-17 21:10 58.89312 5.63736 30 ft 0 kts 164°
2026-04-17 21:11 58.89296 5.63739 30 ft 14 kts 174°
2026-04-17 21:11 58.88964 5.63751 31 ft 83 kts 181°
2026-04-17 21:11 58.88160 5.63764 42 ft 147 kts 179°
2026-04-17 21:11 58.86990 5.63785 492 ft 183 kts 177°
2026-04-17 21:12 58.85642 5.63818 1367 ft 192 kts 167°
2026-04-17 21:12 58.84496 5.65055 2430 ft 200 kts 133°
2026-04-17 21:12 58.84136 5.67722 3524 ft 229 kts 87°
2026-04-17 21:12 58.84965 5.70493 4574 ft 258 kts 47°
2026-04-17 21:13 58.86410 5.72832 5098 ft 282 kts 58°
2026-04-17 21:13 58.87246 5.76338 5508 ft 297 kts 79°
2026-04-17 21:13 58.87799 5.80336 5997 ft 315 kts 86°
2026-04-17 21:13 58.88088 5.84650 6536 ft 335 kts 88°
2026-04-17 21:14 58.88465 5.89243 7008 ft 358 kts 82°
2026-04-17 21:14 58.89107 5.93950 7582 ft 367 kts 79°
2026-04-17 21:14 58.89691 5.98494 8177 ft 329 kts 82°
2026-04-17 21:14 58.90130 6.02811 8773 ft 334 kts 85°
2026-04-17 21:15 58.90447 6.07370 9388 ft 350 kts 89°
2026-04-17 21:15 58.90648 6.12178 10022 ft 367 kts 89°
2026-04-17 21:15 58.90898 6.17224 10588 ft 385 kts 87°
2026-04-17 21:15 58.91260 6.22471 11074 ft 396 kts 82°
2026-04-17 21:16 58.91878 6.27402 11652 ft 363 kts 77°
2026-04-17 21:16 58.92638 6.31876 11946 ft 339 kts 75°
2026-04-17 21:16 58.93349 6.36252 11485 ft 344 kts 77°
2026-04-17 21:16 58.94078 6.40757 9912 ft 372 kts 75°
2026-04-17 21:17 58.94727 6.45851 8329 ft 398 kts 81°
2026-04-17 21:17 58.95297 6.50937 8369 ft 374 kts 83°
2026-04-17 21:17 58.95800 6.55732 8391 ft 357 kts 83°
2026-04-17 21:17 58.96256 6.60427 8002 ft 351 kts 85°
2026-04-17 21:18 58.96668 6.65088 7423 ft 351 kts 86°
2026-04-17 21:18 58.97031 6.69777 6614 ft 355 kts 87°
2026-04-17 21:18 58.97379 6.74542 5986 ft 357 kts 87°
2026-04-17 21:18 58.97708 6.79263 5598 ft 348 kts 87°
2026-04-17 21:19 58.98123 6.83722 5616 ft 328 kts 83°
2026-04-17 21:19 58.98513 6.87836 6090 ft 295 kts 89°
2026-04-17 21:19 58.98754 6.91615 6271 ft 272 kts 88°
2026-04-17 21:19 58.99165 6.95101 6267 ft 267 kts 82°
2026-04-17 21:20 58.99688 6.98848 6392 ft 308 kts 81°
2026-04-17 21:20 59.00235 7.03100 6477 ft 339 kts 82°
2026-04-17 21:20 59.00734 7.07740 6602 ft 365 kts 82°
2026-04-17 21:20 59.01275 7.12732 6601 ft 386 kts 82°
2026-04-17 21:21 59.01794 7.17631 6587 ft 364 kts 83°
2026-04-17 21:21 59.02229 7.22330 6611 ft 343 kts 85°
2026-04-17 21:21 59.02640 7.26745 6671 ft 323 kts 83°
2026-04-17 21:21 59.03097 7.30899 6660 ft 306 kts 83°
2026-04-17 21:22 59.03504 7.34917 6606 ft 301 kts 85°
2026-04-17 21:22 59.03857 7.38884 6555 ft 297 kts 86°
2026-04-17 21:22 59.04164 7.42838 6551 ft 295 kts 86°
2026-04-17 21:22 59.04523 7.46825 6204 ft 306 kts 84°
2026-04-17 21:23 59.04939 7.50950 5733 ft 317 kts 84°
2026-04-17 21:23 59.05303 7.55126 5528 ft 316 kts 85°
2026-04-17 21:23 59.05666 7.59314 5442 ft 312 kts 85°
2026-04-17 21:23 59.06031 7.63462 5285 ft 311 kts 84°
2026-04-17 21:24 59.06434 7.67587 5131 ft 311 kts 82°
2026-04-17 21:24 59.06867 7.71680 5095 ft 306 kts 83°
2026-04-17 21:24 59.07243 7.75728 5046 ft 303 kts 83°
2026-04-17 21:24 59.07644 7.79760 4907 ft 306 kts 82°
2026-04-17 21:25 59.07951 7.83772 5105 ft 293 kts 89°
2026-04-17 21:25 59.08249 7.87663 5222 ft 291 kts 82°
2026-04-17 21:25 59.08702 7.91521 5062 ft 293 kts 82°
2026-04-17 21:25 59.09057 7.95385 4917 ft 296 kts 84°
2026-04-17 21:26 59.09369 7.99314 4973 ft 292 kts 84°
2026-04-17 21:26 59.09718 8.03152 5139 ft 285 kts 84°
2026-04-17 21:26 59.10053 8.06954 5101 ft 285 kts 83°
2026-04-17 21:26 59.10419 8.10751 4997 ft 287 kts 83°
2026-04-17 21:27 59.10828 8.14582 5091 ft 294 kts 82°
2026-04-17 21:27 59.11210 8.18454 5222 ft 293 kts 84°
2026-04-17 21:27 59.11425 8.21060 5155 ft 296 kts 85°
2026-04-17 21:27 59.11764 8.25052 5059 ft 304 kts 83°
2026-04-17 21:28 59.12272 8.30633 5063 ft 321 kts 84°
2026-04-17 21:28 59.12649 8.34963 5354 ft 339 kts 83°
2026-04-17 21:28 59.13027 8.39609 5568 ft 351 kts 83°
2026-04-17 21:28 59.13463 8.44434 5577 ft 366 kts 81°
2026-04-17 21:29 59.13959 8.49168 5587 ft 347 kts 81°
2026-04-17 21:29 59.14235 8.52193 5547 ft 338 kts 83°
2026-04-17 21:29 59.14583 8.56656 5320 ft 330 kts 83°
2026-04-17 21:29 59.14975 8.61017 5084 ft 324 kts 82°
2026-04-17 21:30 59.15376 8.65226 5086 ft 309 kts 83°
2026-04-17 21:30 59.15809 8.70608 4901 ft 299 kts 84°
2026-04-17 21:30 59.16137 8.74543 4939 ft 286 kts 83°
2026-04-17 21:30 59.16462 8.78209 5249 ft 264 kts 83°
2026-04-17 21:31 59.16665 8.80493 5401 ft 253 kts 83°
2026-04-17 21:31 59.16970 8.84018 5499 ft 285 kts 83°
2026-04-17 21:31 59.17296 8.88088 5405 ft 315 kts 84°
2026-04-17 21:31 59.17625 8.92363 5236 ft 323 kts 84°
2026-04-17 21:32 59.18131 8.98154 5082 ft 330 kts 81°
2026-04-17 21:32 59.18423 9.01113 5075 ft 330 kts 82°
2026-04-17 21:32 59.18814 9.05560 4952 ft 334 kts 83°
2026-04-17 21:32 59.19162 9.10007 5028 ft 331 kts 84°
2026-04-17 21:33 59.19497 9.14395 5017 ft 332 kts 83°
2026-04-17 21:33 59.19875 9.18830 5055 ft 331 kts 82°
2026-04-17 21:33 59.20295 9.23220 5143 ft 328 kts 82°
2026-04-17 21:33 59.20687 9.27595 5123 ft 328 kts 84°
2026-04-17 21:34 59.20987 9.32042 4971 ft 332 kts 85°
2026-04-17 21:34 59.21342 9.36496 4968 ft 332 kts 82°
2026-04-17 21:34 59.22128 9.45377 4910 ft 332 kts 83°
2026-04-17 21:35 59.22521 9.49749 4971 ft 330 kts 83°
2026-04-17 21:35 59.22840 9.54180 4975 ft 330 kts 85°
2026-04-17 21:35 59.23109 9.58632 4933 ft 331 kts 84°
2026-04-17 21:35 59.23478 9.63064 4985 ft 330 kts 82°
2026-04-17 21:36 59.23866 9.67460 5036 ft 328 kts 83°
2026-04-17 21:36 59.24229 9.71851 5044 ft 327 kts 84°
2026-04-17 21:36 59.24586 9.76248 5062 ft 327 kts 84°
2026-04-17 21:36 59.24947 9.80629 5106 ft 326 kts 84°
2026-04-17 21:37 59.25312 9.85000 5142 ft 326 kts 83°
2026-04-17 21:37 59.25627 9.89390 5108 ft 327 kts 86°
2026-04-17 21:37 59.25938 9.93760 5013 ft 331 kts 84°
2026-04-17 21:37 59.26290 9.98200 5031 ft 331 kts 84°
2026-04-17 21:38 59.26627 10.02638 5037 ft 329 kts 85°
2026-04-17 21:38 59.26928 10.07079 5055 ft 329 kts 85°
2026-04-17 21:38 59.27207 10.11509 5058 ft 329 kts 86°
2026-04-17 21:38 59.27523 10.15944 5046 ft 330 kts 84°
2026-04-17 21:39 59.27904 10.20366 5059 ft 330 kts 82°
2026-04-17 21:39 59.28304 10.24784 5008 ft 331 kts 83°
2026-04-17 21:39 59.28637 10.29284 4806 ft 336 kts 85°
2026-04-17 21:39 59.28932 10.33699 4970 ft 328 kts 85°
2026-04-17 21:40 59.29212 10.38099 4997 ft 326 kts 87°
2026-04-17 21:40 59.29489 10.42504 4971 ft 327 kts 85°
2026-04-17 21:40 59.29826 10.46915 4886 ft 330 kts 83°
2026-04-17 21:40 59.30235 10.51345 4796 ft 331 kts 84°
2026-04-17 21:41 59.30552 10.55809 4733 ft 332 kts 86°
2026-04-17 21:41 59.30866 10.60252 4804 ft 329 kts 85°
2026-04-17 21:41 59.31217 10.64686 4719 ft 331 kts 84°
2026-04-17 21:41 59.31554 10.69079 4736 ft 329 kts 86°
2026-04-17 21:42 59.31790 10.73513 4820 ft 325 kts 88°
2026-04-17 21:42 59.32059 10.77889 4923 ft 323 kts 85°
2026-04-17 21:42 59.32419 10.82262 4806 ft 329 kts 83°
2026-04-17 21:42 59.32807 10.86698 4901 ft 330 kts 85°
2026-04-17 21:43 59.33063 10.91131 5012 ft 326 kts 88°
2026-04-17 21:43 59.33313 10.95535 5037 ft 326 kts 86°
2026-04-17 21:43 59.33641 10.99931 5059 ft 326 kts 85°
2026-04-17 21:43 59.33996 11.04319 5069 ft 326 kts 84°
2026-04-17 21:44 59.34274 11.08687 4913 ft 330 kts 89°
2026-04-17 21:44 59.34458 11.13173 4952 ft 329 kts 86°
2026-04-17 21:44 59.34805 11.17586 5016 ft 327 kts 83°
2026-04-17 21:44 59.35154 11.22004 4983 ft 329 kts 85°
2026-04-17 21:45 59.35475 11.26446 4920 ft 331 kts 85°
2026-04-17 21:45 59.35789 11.30916 4858 ft 332 kts 85°
2026-04-17 21:45 59.36085 11.35406 4853 ft 331 kts 86°
2026-04-17 21:45 59.36342 11.39846 4993 ft 326 kts 87°
2026-04-17 21:46 59.36581 11.44273 4985 ft 327 kts 86°
2026-04-17 21:46 59.36835 11.48706 4987 ft 327 kts 86°
2026-04-17 21:46 59.37100 11.53071 4992 ft 327 kts 85°
2026-04-17 21:46 59.37416 11.57495 5001 ft 327 kts 84°
2026-04-17 21:47 59.37757 11.61912 5004 ft 327 kts 84°
2026-04-17 21:47 59.38057 11.66335 4981 ft 328 kts 85°
2026-04-17 21:47 59.38315 11.70799 4866 ft 331 kts 86°
2026-04-17 21:47 59.38549 11.75310 4828 ft 331 kts 86°
2026-04-17 21:48 59.38781 11.79728 5183 ft 320 kts 85°
2026-04-17 21:48 59.39055 11.84024 5317 ft 318 kts 83°
2026-04-17 21:48 59.39379 11.88293 5176 ft 324 kts 84°
2026-04-17 21:48 59.39672 11.92700 5081 ft 328 kts 85°
2026-04-17 21:49 59.39944 11.97177 4979 ft 331 kts 85°
2026-04-17 21:49 59.40195 12.01673 4965 ft 331 kts 86°
2026-04-17 21:49 59.40458 12.06162 4984 ft 331 kts 84°
2026-04-17 21:49 59.40782 12.10628 5006 ft 330 kts 83°
2026-04-17 21:50 59.41038 12.15094 5022 ft 329 kts 88°
2026-04-17 21:50 59.41176 12.19572 5040 ft 328 kts 87°
2026-04-17 21:50 59.41499 12.23948 5070 ft 329 kts 82°
2026-04-17 21:50 59.41829 12.28387 5080 ft 329 kts 84°
2026-04-17 21:51 59.42070 12.32854 5034 ft 330 kts 87°
2026-04-17 21:51 59.42244 12.37334 5089 ft 328 kts 87°
2026-04-17 21:51 59.42476 12.41781 5111 ft 328 kts 83°
2026-04-17 21:51 59.42817 12.46223 5074 ft 330 kts 83°
2026-04-17 21:52 59.43109 12.50702 5021 ft 331 kts 86°
2026-04-17 21:52 59.43339 12.55211 4990 ft 339 kts 85°
2026-04-17 21:52 59.43602 12.59863 4937 ft 341 kts 85°
2026-04-17 21:52 59.43869 12.64414 4876 ft 340 kts 85°
2026-04-17 21:53 59.44134 12.68972 5044 ft 331 kts 85°
2026-04-17 21:53 59.44393 12.73421 5195 ft 324 kts 85°
2026-04-17 21:53 59.44640 12.77866 4984 ft 330 kts 86°
2026-04-17 21:53 59.44835 12.82323 5046 ft 325 kts 87°
2026-04-17 21:54 59.45024 12.86747 5047 ft 324 kts 87°
2026-04-17 21:54 59.45224 12.91139 5060 ft 322 kts 87°
2026-04-17 21:54 59.45423 12.95525 5055 ft 321 kts 87°
2026-04-17 21:54 59.45689 12.99816 5062 ft 321 kts 83°
2026-04-17 21:55 59.45992 13.04147 5052 ft 319 kts 85°
2026-04-17 21:55 59.46253 13.08482 5035 ft 319 kts 85°
2026-04-17 21:55 59.46491 13.12811 5022 ft 318 kts 85°
2026-04-17 21:55 59.46721 13.17134 5014 ft 318 kts 85°
2026-04-17 21:56 59.46949 13.21460 5003 ft 317 kts 85°
2026-04-17 21:56 59.47113 13.25826 5004 ft 334 kts 88°
2026-04-17 21:56 59.47292 13.30550 4994 ft 358 kts 86°
2026-04-17 21:56 59.47556 13.35576 4940 ft 371 kts 85°
2026-04-17 21:57 59.47855 13.40508 4922 ft 364 kts 84°
2026-04-17 21:57 59.48164 13.45411 4967 ft 360 kts 85°
2026-04-17 21:57 59.48375 13.50260 4999 ft 357 kts 88°
2026-04-17 21:57 59.48573 13.55150 5035 ft 355 kts 85°
2026-04-17 21:58 59.48833 13.59963 5021 ft 354 kts 86°
2026-04-17 21:58 59.49087 13.64779 4912 ft 348 kts 85°
2026-04-17 21:58 59.49289 13.69392 4865 ft 328 kts 88°
2026-04-17 21:58 59.49455 13.73684 5048 ft 302 kts 87°
2026-04-17 21:59 59.49648 13.77618 5119 ft 283 kts 85°
2026-04-17 21:59 59.49864 13.81410 5064 ft 269 kts 85°
2026-04-17 21:59 59.50107 13.84967 4903 ft 260 kts 87°
2026-04-17 21:59 59.50202 13.88430 4881 ft 246 kts 89°
2026-04-17 22:00 59.50290 13.91693 4904 ft 232 kts 88°
2026-04-17 22:00 59.50419 13.94755 4918 ft 218 kts 84°
2026-04-17 22:00 59.50575 13.97633 4906 ft 205 kts 88°
2026-04-17 22:00 59.50673 14.00354 4827 ft 194 kts 88°
2026-04-17 22:01 59.50767 14.02913 4878 ft 181 kts 88°
2026-04-17 22:01 59.50870 14.05620 5286 ft 211 kts 87°
2026-04-17 22:01 59.51000 14.08492 5603 ft 209 kts 86°
2026-04-17 22:01 59.51162 14.11557 5678 ft 243 kts 85°
2026-04-17 22:02 59.51351 14.15080 5675 ft 274 kts 85°
2026-04-17 22:02 59.51562 14.18970 5567 ft 306 kts 85°
2026-04-17 22:02 59.51801 14.23408 5111 ft 346 kts 86°
2026-04-17 22:02 59.51970 14.28294 5003 ft 356 kts 88°
2026-04-17 22:03 59.52105 14.33072 5174 ft 345 kts 88°
2026-04-17 22:03 59.52282 14.37808 4914 ft 349 kts 86°
2026-04-17 22:03 59.52497 14.42523 5002 ft 341 kts 85°
2026-04-17 22:03 59.52724 14.47127 5098 ft 334 kts 85°
2026-04-17 22:04 59.52927 14.51640 5183 ft 328 kts 86°
2026-04-17 22:04 59.53098 14.56112 5183 ft 326 kts 86°
2026-04-17 22:04 59.53271 14.60503 5184 ft 325 kts 86°
2026-04-17 22:04 59.53438 14.64935 5175 ft 324 kts 86°
2026-04-17 22:05 59.53597 14.69351 5169 ft 323 kts 86°
2026-04-17 22:05 59.53749 14.73767 5104 ft 324 kts 86°
2026-04-17 22:05 59.53894 14.78207 4999 ft 326 kts 86°
2026-04-17 22:05 59.54036 14.82662 4942 ft 326 kts 86°
2026-04-17 22:06 59.54197 14.87106 4992 ft 323 kts 86°
2026-04-17 22:06 59.54388 14.91483 5043 ft 320 kts 85°
2026-04-17 22:06 59.54616 14.95764 5106 ft 317 kts 84°
2026-04-17 22:06 59.54818 15.00095 5059 ft 318 kts 86°
2026-04-17 22:07 59.54936 15.04450 5028 ft 318 kts 88°
2026-04-17 22:07 59.55037 15.08797 5051 ft 317 kts 87°
2026-04-17 22:07 59.55206 15.13107 5108 ft 315 kts 85°
2026-04-17 22:07 59.55408 15.17394 5132 ft 314 kts 84°
2026-04-17 22:08 59.55625 15.21672 5145 ft 313 kts 84°
2026-04-17 22:08 59.55790 15.25947 5156 ft 313 kts 86°
2026-04-17 22:08 59.55889 15.30226 5169 ft 312 kts 88°
2026-04-17 22:08 59.55948 15.34495 5178 ft 312 kts 88°
2026-04-17 22:09 59.56071 15.38712 5160 ft 312 kts 84°
2026-04-17 22:09 59.56310 15.42975 5116 ft 314 kts 84°
2026-04-17 22:09 59.56512 15.47274 5072 ft 315 kts 85°
2026-04-17 22:09 59.56654 15.51586 5026 ft 316 kts 87°
2026-04-17 22:10 59.56749 15.55906 5019 ft 315 kts 87°
2026-04-17 22:10 59.56876 15.60222 5020 ft 315 kts 86°
2026-04-17 22:10 59.57033 15.64524 5012 ft 315 kts 86°
2026-04-17 22:10 59.57123 15.68834 5007 ft 314 kts 89°
2026-04-17 22:11 59.57168 15.73147 5002 ft 314 kts 87°
2026-04-17 22:11 59.57345 15.77426 5006 ft 313 kts 84°
2026-04-17 22:11 59.57542 15.81650 4991 ft 314 kts 85°
2026-04-17 22:11 59.57689 15.85947 4948 ft 314 kts 86°
2026-04-17 22:12 59.57810 15.90248 4920 ft 314 kts 87°
2026-04-17 22:12 59.57919 15.94545 4957 ft 314 kts 86°
2026-04-17 22:12 59.58055 15.98856 5003 ft 313 kts 86°
2026-04-17 22:12 59.58216 16.03136 5042 ft 313 kts 85°
2026-04-17 22:13 59.58381 16.07415 5093 ft 313 kts 85°
2026-04-17 22:13 59.58526 16.11686 5130 ft 312 kts 87°
2026-04-17 22:13 59.58597 16.15994 5122 ft 314 kts 89°
2026-04-17 22:13 59.58665 16.20284 5187 ft 313 kts 86°
2026-04-17 22:14 59.58799 16.24531 5113 ft 316 kts 86°
2026-04-17 22:14 59.58897 16.28885 5125 ft 317 kts 88°
2026-04-17 22:14 59.58961 16.33222 5178 ft 315 kts 87°
2026-04-17 22:14 59.59130 16.37534 5159 ft 317 kts 85°
2026-04-17 22:15 59.59268 16.41891 5138 ft 318 kts 88°
2026-04-17 22:15 59.59335 16.46249 5188 ft 317 kts 88°
2026-04-17 22:15 59.59437 16.50608 5111 ft 320 kts 86°
2026-04-17 22:15 59.59622 16.55012 5043 ft 323 kts 84°
2026-04-17 22:16 59.59768 16.59434 4989 ft 324 kts 87°
2026-04-17 22:16 59.59839 16.63902 4900 ft 326 kts 88°
2026-04-17 22:16 59.59903 16.68299 5044 ft 321 kts 88°
2026-04-17 22:16 59.59992 16.72668 5155 ft 318 kts 86°
2026-04-17 22:17 59.60122 16.77031 5168 ft 318 kts 85°
2026-04-17 22:17 59.60286 16.81396 5101 ft 321 kts 85°
2026-04-17 22:17 59.60421 16.85832 4969 ft 325 kts 88°
2026-04-17 22:17 59.60494 16.90257 5048 ft 321 kts 87°
2026-04-17 22:18 59.60600 16.94655 5084 ft 320 kts 86°
2026-04-17 22:18 59.60712 16.99046 5079 ft 321 kts 87°
2026-04-17 22:18 59.60769 17.03475 4994 ft 323 kts 89°
2026-04-17 22:18 59.60804 17.07905 5055 ft 321 kts 88°
2026-04-17 22:19 59.60909 17.12229 5108 ft 319 kts 86°
2026-04-17 22:19 59.61042 17.16620 5091 ft 320 kts 86°
2026-04-17 22:19 59.61151 17.21004 5132 ft 320 kts 87°
2026-04-17 22:19 59.61240 17.25386 5162 ft 319 kts 87°
2026-04-17 22:20 59.61307 17.29780 5168 ft 320 kts 87°
2026-04-17 22:20 59.61352 17.34175 5172 ft 321 kts 88°
2026-04-17 22:20 59.61379 17.38591 5174 ft 322 kts 88°
2026-04-17 22:20 59.61387 17.43016 5151 ft 323 kts 89°
2026-04-17 22:21 59.61364 17.47471 5089 ft 326 kts 88°
2026-04-17 22:21 59.61469 17.51954 5019 ft 327 kts 84°
2026-04-17 22:21 59.61721 17.56431 4854 ft 327 kts 81°
2026-04-17 22:21 59.62038 17.60779 4368 ft 323 kts 80°
2026-04-17 22:22 59.62409 17.65124 3833 ft 320 kts 79°
2026-04-17 22:22 59.62821 17.69469 3089 ft 324 kts 78°
2026-04-17 22:22 59.62998 17.73823 2834 ft 312 kts 103°
2026-04-17 22:22 59.61824 17.77236 2501 ft 305 kts 152°
2026-04-17 22:23 59.59872 17.77684 2663 ft 278 kts 200°
2026-04-17 22:23 59.58644 17.75084 2356 ft 264 kts 266°
2026-04-17 22:23 59.59414 17.72071 1574 ft 266 kts 334°
2026-04-17 22:23 59.61143 17.72508 1097 ft 266 kts 41°
2026-04-17 22:24 59.62178 17.75503 1209 ft 261 kts 62°
2026-04-17 22:24 59.63054 17.78553 1305 ft 252 kts 57°
2026-04-17 22:24 59.63940 17.81515 1152 ft 248 kts 67°
2026-04-17 22:24 59.64435 17.84580 975 ft 226 kts 79°
2026-04-17 22:25 59.64923 17.87312 837 ft 201 kts 68°
2026-04-17 22:25 59.65322 17.89887 539 ft 190 kts 73°
2026-04-17 22:25 59.65660 17.92318 292 ft 177 kts 74°
2026-04-17 22:25 59.65968 17.94571 142 ft 153 kts 74°
2026-04-17 22:26 59.66125 17.95772 142 ft 44 kts 75°
2026-04-17 22:26 59.66203 17.96365 143 ft 45 kts 76°
2026-04-17 22:26 59.66273 17.96960 142 ft 43 kts 81°
2026-04-17 22:26 59.66341 17.97520 141 ft 41 kts 76°
2026-04-17 22:27 59.66350 17.97889 140 ft 17 kts 141°
2026-04-17 22:27 59.66306 17.97916 141 ft 0 kts 182°
2026-04-17 22:27 59.66305 17.97916 141 ft 0 kts 182°
2026-04-17 22:32 59.66302 17.97915 142 ft 3 kts 186°
2026-04-17 22:32 59.66243 17.97835 142 ft 17 kts 224°
2026-04-17 22:32 59.66169 17.97594 142 ft 22 kts 254°
2026-04-17 22:32 59.66124 17.97292 142 ft 24 kts 253°
2026-04-17 22:33 59.66083 17.96967 142 ft 25 kts 257°
2026-04-17 22:33 59.66040 17.96619 142 ft 27 kts 255°
2026-04-17 22:33 59.65994 17.96251 142 ft 28 kts 256°
2026-04-17 22:33 59.65945 17.95881 142 ft 28 kts 255°
2026-04-17 22:34 59.65897 17.95510 142 ft 28 kts 257°
2026-04-17 22:34 59.65853 17.95140 142 ft 28 kts 256°
2026-04-17 22:34 59.65805 17.94769 141 ft 28 kts 255°
2026-04-17 22:34 59.65756 17.94403 141 ft 27 kts 256°
2026-04-17 22:35 59.65710 17.94038 141 ft 27 kts 256°
2026-04-17 22:35 59.65648 17.93843 141 ft 8 kts 185°
2026-04-17 22:35 59.65586 17.93854 141 ft 0 kts 174°
2026-04-17 22:36 59.65567 17.93859 141 ft 8 kts 171°
2026-04-17 22:36 59.65479 17.93909 141 ft 18 kts 161°
2026-04-17 22:36 59.65418 17.93936 141 ft 4 kts 185°
2026-04-17 22:36 59.65396 17.93897 141 ft 5 kts 241°
2026-04-17 22:37 59.65390 17.93804 141 ft 10 kts 258°
2026-04-17 22:37 59.65389 17.93796 141 ft 0 kts 259°